TimePDT,TemperatureF,Dew PointF,Humidity,Sea Level PressureIn,VisibilityMPH,Wind Direction,Wind SpeedMPH,Gust SpeedMPH,PrecipitationIn,Events,Conditions,WindDirDegrees,DateUTC
12:15 AM,68.0,46.4,46,30.13,10.0,Calm,Calm,-,N/A,,Overcast,0,2013-09-04 07:15:00
12:35 AM,69.8,46.4,43,30.13,8.0,Calm,Calm,-,N/A,,Overcast,0,2013-09-04 07:35:00
12:55 AM,68.0,44.6,43,30.13,7.0,Calm,Calm,-,N/A,,Overcast,0,2013-09-04 07:55:00
1:15 AM,68.0,46.4,46,30.13,7.0,Calm,Calm,-,N/A,,Overcast,0,2013-09-04 08:15:00
1:35 AM,66.2,46.4,49,30.13,7.0,Calm,Calm,-,N/A,,Overcast,0,2013-09-04 08:35:00
1:55 AM,64.4,46.4,52,30.13,6.0,Calm,Calm,-,N/A,,Haze,0,2013-09-04 08:55:00
2:15 AM,66.2,44.6,46,30.14,5.0,Calm,Calm,-,N/A,,Haze,0,2013-09-04 09:15:00
2:35 AM,66.2,46.4,49,30.14,5.0,Calm,Calm,-,N/A,,Haze,0,2013-09-04 09:35:00
2:55 AM,66.2,46.4,49,30.14,5.0,SSW,3.5,-,N/A,,Haze,210,2013-09-04 09:55:00
3:15 AM,64.4,44.6,49,30.14,5.0,NNW,4.6,-,N/A,,Haze,340,2013-09-04 10:15:00
3:35 AM,64.4,46.4,52,30.14,5.0,Calm,Calm,-,N/A,,Haze,0,2013-09-04 10:35:00
3:55 AM,62.6,44.6,52,30.14,5.0,North,3.5,-,N/A,,Haze,350,2013-09-04 10:55:00
4:15 AM,60.8,44.6,55,30.14,5.0,NE,3.5,-,N/A,,Haze,40,2013-09-04 11:15:00
4:35 AM,59.0,44.6,59,30.14,5.0,Calm,Calm,-,N/A,,Haze,0,2013-09-04 11:35:00
4:55 AM,59.0,46.4,63,30.14,5.0,SW,3.5,-,N/A,,Haze,230,2013-09-04 11:55:00
5:15 AM,59.0,44.6,59,30.15,5.0,Calm,Calm,-,N/A,,Haze,0,2013-09-04 12:15:00
5:35 AM,59.0,44.6,59,30.15,5.0,Calm,Calm,-,N/A,,Haze,0,2013-09-04 12:35:00
5:55 AM,57.2,44.6,63,30.15,5.0,Calm,Calm,-,N/A,,Haze,0,2013-09-04 12:55:00
6:15 AM,59.0,44.6,59,30.15,5.0,Calm,Calm,-,N/A,,Haze,0,2013-09-04 13:15:00
6:35 AM,55.4,46.4,72,30.16,3.0,Calm,Calm,-,N/A,,Haze,0,2013-09-04 13:35:00
6:55 AM,57.2,46.4,67,30.16,3.0,Calm,Calm,-,N/A,,Haze,0,2013-09-04 13:55:00
7:15 AM,57.2,46.4,67,30.17,3.0,Calm,Calm,-,N/A,,Haze,0,2013-09-04 14:15:00
7:35 AM,57.2,46.4,67,30.17,3.0,Calm,Calm,-,N/A,,Haze,0,2013-09-04 14:35:00
7:55 AM,57.2,46.4,67,30.17,3.0,Calm,Calm,-,N/A,,Haze,0,2013-09-04 14:55:00
8:15 AM,57.2,46.4,67,30.17,3.0,Calm,Calm,-,N/A,,Haze,0,2013-09-04 15:15:00
8:35 AM,60.8,46.4,59,30.17,3.0,Calm,Calm,-,N/A,,Haze,0,2013-09-04 15:35:00
8:55 AM,64.4,46.4,52,30.18,3.0,Calm,Calm,-,N/A,,Haze,0,2013-09-04 15:55:00
9:15 AM,66.2,46.4,49,30.18,4.0,Calm,Calm,-,N/A,,Haze,0,2013-09-04 16:15:00
9:35 AM,66.2,46.4,49,30.18,4.0,Calm,Calm,-,N/A,,Haze,0,2013-09-04 16:35:00
9:55 AM,69.8,46.4,43,30.18,4.0,Calm,Calm,-,N/A,,Haze,0,2013-09-04 16:55:00
10:15 AM,71.6,46.4,41,30.18,4.0,SSE,3.5,-,N/A,Rain,Light Rain,150,2013-09-04 17:15:00
10:35 AM,73.4,46.4,38,30.17,4.0,ESE,4.6,-,N/A,,Haze,110,2013-09-04 17:35:00
10:55 AM,75.2,44.6,34,30.17,4.0,East,4.6,-,N/A,,Haze,90,2013-09-04 17:55:00
11:15 AM,77.0,44.6,32,30.16,3.0,East,4.6,-,N/A,,Haze,90,2013-09-04 18:15:00
11:35 AM,80.6,44.6,28,30.15,3.0,SE,4.6,-,N/A,,Haze,130,2013-09-04 18:35:00
11:55 AM,80.6,44.6,28,30.15,4.0,ESE,6.9,-,N/A,,Haze,120,2013-09-04 18:55:00
12:15 PM,80.6,42.8,26,30.14,4.0,Calm,Calm,-,N/A,,Haze,0,2013-09-04 19:15:00
12:35 PM,80.6,42.8,26,30.13,4.0,East,5.8,-,N/A,,Haze,90,2013-09-04 19:35:00
12:55 PM,82.4,42.8,25,30.12,5.0,NW,5.8,-,N/A,,Haze,320,2013-09-04 19:55:00
1:15 PM,82.4,42.8,25,30.12,9.0,WSW,8.1,-,N/A,,Partly Cloudy,240,2013-09-04 20:15:00
1:35 PM,82.4,42.8,25,30.12,10.0,West,9.2,-,N/A,,Scattered Clouds,260,2013-09-04 20:35:00
1:55 PM,84.2,42.8,23,30.11,10.0,WSW,10.4,17.3,N/A,,Mostly Cloudy,240,2013-09-04 20:55:00
2:15 PM,84.2,42.8,23,30.10,10.0,WSW,9.2,-,N/A,,Mostly Cloudy,250,2013-09-04 21:15:00
2:35 PM,84.2,41.0,22,30.10,10.0,SSW,6.9,-,N/A,,Mostly Cloudy,200,2013-09-04 21:35:00
2:55 PM,86.0,42.8,22,30.09,10.0,SSW,5.8,-,N/A,,Scattered Clouds,200,2013-09-04 21:55:00
3:15 PM,86.0,41.0,20,30.08,10.0,SW,12.7,18.4,N/A,,Clear,220,2013-09-04 22:15:00
3:35 PM,87.8,42.8,21,30.08,10.0,WSW,16.1,21.9,N/A,,Clear,250,2013-09-04 22:35:00
3:55 PM,86.0,42.8,22,30.07,10.0,West,12.7,19.6,N/A,,Clear,260,2013-09-04 22:55:00
4:15 PM,86.0,42.8,22,30.06,10.0,WSW,10.4,23.0,N/A,,Clear,240,2013-09-04 23:15:00
4:35 PM,84.2,44.6,25,30.06,10.0,WSW,12.7,23.0,N/A,,Clear,250,2013-09-04 23:35:00
4:55 PM,84.2,41.0,22,30.05,10.0,SW,11.5,20.7,N/A,,Clear,230,2013-09-04 23:55:00
5:15 PM,84.2,42.8,23,30.05,10.0,WSW,11.5,24.2,N/A,,Clear,240,2013-09-05 00:15:00
5:35 PM,84.2,44.6,25,30.05,10.0,WSW,8.1,16.1,N/A,,Clear,240,2013-09-05 00:35:00
5:55 PM,82.4,44.6,26,30.05,10.0,West,8.1,16.1,N/A,,Clear,270,2013-09-05 00:55:00
6:15 PM,82.4,44.6,26,30.05,10.0,SW,9.2,-,N/A,,Clear,230,2013-09-05 01:15:00
6:35 PM,80.6,48.2,32,30.06,10.0,West,8.1,-,N/A,,Clear,260,2013-09-05 01:35:00
6:55 PM,78.8,46.4,32,30.06,10.0,WSW,6.9,18.4,N/A,,Clear,250,2013-09-05 01:55:00
7:15 PM,77.0,44.6,32,30.06,10.0,SW,4.6,-,N/A,,Clear,220,2013-09-05 02:15:00
7:35 PM,77.0,44.6,32,30.07,10.0,WSW,8.1,-,N/A,,Partly Cloudy,240,2013-09-05 02:35:00
7:55 PM,77.0,44.6,32,30.08,10.0,WSW,9.2,-,N/A,,Scattered Clouds,240,2013-09-05 02:55:00
8:15 PM,77.0,44.6,32,30.08,10.0,ESE,5.8,-,N/A,,Partly Cloudy,120,2013-09-05 03:15:00
8:35 PM,73.4,46.4,38,30.09,10.0,SE,4.6,-,N/A,,Clear,140,2013-09-05 03:35:00
8:55 PM,71.6,46.4,41,30.09,10.0,SE,3.5,-,N/A,,Clear,140,2013-09-05 03:55:00
9:15 PM,71.6,46.4,41,30.10,10.0,South,3.5,-,N/A,,Partly Cloudy,180,2013-09-05 04:15:00
9:35 PM,71.6,46.4,41,30.10,10.0,South,3.5,-,N/A,,Clear,190,2013-09-05 04:35:00
9:55 PM,73.4,46.4,38,30.10,7.0,SW,5.8,-,N/A,,Clear,220,2013-09-05 04:55:00
10:15 PM,71.6,46.4,41,30.10,8.0,SSW,4.6,-,N/A,,Clear,210,2013-09-05 05:15:00
10:35 PM,71.6,46.4,41,30.10,7.0,SW,3.5,-,N/A,,Clear,230,2013-09-05 05:35:00
10:55 PM,69.8,46.4,43,30.11,7.0,Calm,Calm,-,N/A,,Clear,0,2013-09-05 05:55:00
11:15 PM,66.2,46.4,49,30.10,7.0,Calm,Calm,-,N/A,,Clear,0,2013-09-05 06:15:00
11:35 PM,66.2,46.4,49,30.10,7.0,Calm,Calm,-,N/A,,Clear,0,2013-09-05 06:35:00
11:55 PM,66.2,46.4,49,30.10,7.0,Calm,Calm,-,N/A,,Clear,0,2013-09-05 06:55:00